| time (UTC) | temp C | wind direction | speed KPH | gust KPH | rain 1hr cm | rain 24hr cm | rain mn cm | humidity % | barometer mb |
| 20260901190012 | 30 | 194 | 4.8 | 14.5 | 0.00 | 0.18 | 0.00 | 27 | 1018.6 |
| 20260901185509 | 30 | 248 | 3.2 | 12.9 | 0.00 | 0.18 | 0.00 | 25 | 1018.5 |
| 20260901185012 | 30 | 306 | 3.2 | 14.5 | 0.00 | 0.18 | 0.00 | 25 | 1018.8 |
| 20260901184516 | 30 | 234 | 6.4 | 14.5 | 0.00 | 0.18 | 0.00 | 25 | 1018.9 |
| 20260901184012 | 29 | 92 | 1.6 | 9.7 | 0.00 | 0.18 | 0.00 | 25 | 1019.0 |
| 20260901183514 | 30 | 360 | 1.6 | 8.0 | 0.00 | 0.18 | 0.00 | 26 | 1019.2 |
| 20260901183030 | 30 | 319 | 3.2 | 8.0 | 0.00 | 0.18 | 0.00 | 30 | 1019.3 |
| 20260901182517 | 29 | 91 | 1.6 | 16.1 | 0.00 | 0.18 | 0.00 | 27 | 1019.2 |
| 20260901182006 | 29 | 260 | 6.4 | 16.1 | 0.00 | 0.18 | 0.00 | 27 | 1019.2 |
| 20260901181510 | 29 | 153 | 6.4 | 14.5 | 0.00 | 0.18 | 0.00 | 29 | 1019.2 |
| 20260901181008 | 29 | 173 | 4.8 | 16.1 | 0.00 | 0.18 | 0.00 | 26 | 1019.3 |
| 20260901180512 | 29 | 175 | 4.8 | 19.3 | 0.00 | 0.18 | 0.00 | 27 | 1019.2 |
| 20260901180029 | 28 | 254 | 4.8 | 19.3 | 0.00 | 0.18 | 0.00 | 28 | 1019.2 |
| 20260901175515 | 28 | 202 | 3.2 | 16.1 | 0.00 | 0.18 | 0.00 | 28 | 1019.3 |
| 20260901175013 | 28 | 217 | 4.8 | 24.1 | 0.00 | 0.18 | 0.00 | 27 | 1019.5 |
| 20260901174539 | 28 | 292 | 9.7 | 32.2 | 0.00 | 0.18 | 0.00 | 28 | 1019.6 |
| 20260901174008 | 28 | 360 | 6.4 | 32.2 | 0.00 | 0.18 | 0.00 | 28 | 1019.6 |
| 20260901173508 | 28 | 233 | 3.2 | 17.7 | 0.00 | 0.18 | 0.00 | 29 | 1019.7 |
| 20260901173015 | 28 | 340 | 3.2 | 19.3 | 0.00 | 0.18 | 0.00 | 29 | 1019.9 |
| 20260901172514 | 27 | 24 | 6.4 | 19.3 | 0.00 | 0.18 | 0.00 | 30 | 1019.9 |
| 20260901172014 | 27 | 226 | 3.2 | 14.5 | 0.00 | 0.18 | 0.00 | 30 | 1020.0 |
| 20260901171528 | 27 | 112 | 3.2 | 17.7 | 0.00 | 0.18 | 0.00 | 31 | 1020.0 |
| 20260901171014 | 27 | 291 | 3.2 | 20.9 | 0.00 | 0.18 | 0.00 | 32 | 1020.0 |
| 20260901170516 | 27 | 236 | 9.7 | 30.6 | 0.00 | 0.18 | 0.00 | 32 | 1020.1 |
| 20260901170009 | 27 | 182 | 8.0 | 32.2 | 0.00 | 0.18 | 0.00 | 33 | 1020.1 |
| 20260901165510 | 26 | 211 | 6.4 | 32.2 | 0.00 | 0.18 | 0.00 | 33 | 1020.1 |
| 20260901165010 | 26 | 115 | 6.4 | 24.1 | 0.00 | 0.18 | 0.00 | 34 | 1020.2 |
| 20260901164523 | 26 | 84 | 4.8 | 16.1 | 0.00 | 0.18 | 0.00 | 34 | 1020.0 |
| 20260901164016 | 26 | 191 | 1.6 | 6.4 | 0.00 | 0.18 | 0.00 | 40 | 1020.0 |
| 20260901163515 | 25 | 334 | 0.0 | 12.9 | 0.00 | 0.18 | 0.00 | 41 | 1020.0 |
| 20260901163059 | 25 | 115 | 0.0 | 12.9 | 0.00 | 0.18 | 0.00 | 42 | 1020.0 |
| 20260901162519 | 25 | 20 | 4.8 | 11.3 | 0.00 | 0.18 | 0.00 | 44 | 1019.9 |
| 20260901162007 | 24 | 115 | 1.6 | 6.4 | 0.00 | 0.18 | 0.00 | 44 | 1020.0 |
| 20260901161514 | 23 | 336 | 3.2 | 6.4 | 0.00 | 0.18 | 0.00 | 45 | 1020.1 |
| 20260901161012 | 22 | 338 | 1.6 | 3.2 | 0.00 | 0.18 | 0.00 | 49 | 1020.1 |
| 20260901160515 | 22 | 113 | 0.0 | 3.2 | 0.00 | 0.18 | 0.00 | 54 | 1020.1 |
| 20260901160026 | 21 | 137 | 1.6 | 4.8 | 0.00 | 0.18 | 0.00 | 67 | 1020.1 |
| 20260901155517 | 21 | 51 | 3.2 | 4.8 | 0.00 | 0.18 | 0.00 | 67 | 1020.2 |
| 20260901155004 | 21 | 352 | 1.6 | 3.2 | 0.00 | 0.18 | 0.00 | 71 | 1020.3 |
| 20260901154509 | 20 | 63 | 0.0 | 4.8 | 0.00 | 0.18 | 0.00 | 71 | 1020.3 |
| 20260901154007 | 20 | 9 | 1.6 | 6.4 | 0.00 | 0.18 | 0.00 | 70 | 1020.4 |
| 20260901153510 | 20 | 9 | 1.6 | 6.4 | 0.00 | 0.18 | 0.00 | 72 | 1020.4 |
| 20260901153035 | 19 | 26 | 1.6 | 4.8 | 0.00 | 0.18 | 0.00 | 74 | 1020.5 |
| 20260901152511 | 19 | 256 | 0.0 | 3.2 | 0.00 | 0.18 | 0.00 | 76 | 1020.5 |
| 20260901152015 | 18 | 47 | 1.6 | 3.2 | 0.00 | 0.18 | 0.00 | 74 | 1020.5 |
| 20260901151508 | 18 | 18 | 1.6 | 3.2 | 0.00 | 0.18 | 0.00 | 76 | 1020.6 |
| 20260901151005 | 18 | 20 | 0.0 | 0.0 | 0.00 | 0.18 | 0.00 | 78 | 1020.6 |
| 20260901150505 | 18 | 20 | 0.0 | 3.2 | 0.00 | 0.18 | 0.00 | 77 | 1020.5 |
| 20260901150012 | 18 | 20 | 0.0 | 3.2 | 0.00 | 0.18 | 0.00 | 80 | 1020.4 |
| 20260901145512 | 17 | 345 | 1.6 | 3.2 | 0.00 | 0.18 | 0.00 | 78 | 1020.4 |
| 20260901145014 | 17 | 98 | 1.6 | 3.2 | 0.00 | 0.18 | 0.00 | 82 | 1020.3 |
| 20260901144525 | 17 | 171 | 0.0 | 3.2 | 0.00 | 0.18 | 0.00 | 82 | 1020.4 |
| 20260901144019 | 16 | 175 | 0.0 | 3.2 | 0.00 | 0.18 | 0.00 | 82 | 1020.3 |
| 20260901143504 | 16 | 175 | 0.0 | 3.2 | 0.00 | 0.18 | 0.00 | 85 | 1020.4 |
| 20260901143005 | 16 | 175 | 0.0 | 3.2 | 0.00 | 0.18 | 0.00 | 85 | 1020.5 |
| 20260901142506 | 16 | 192 | 1.6 | 3.2 | 0.00 | 0.18 | 0.00 | 86 | 1020.5 |
| 20260901142007 | 16 | 202 | 0.0 | 3.2 | 0.00 | 0.18 | 0.00 | 88 | 1020.5 |
| 20260901141518 | 15 | 161 | 0.0 | 3.2 | 0.00 | 0.18 | 0.00 | 88 | 1020.5 |
| 20260901141011 | 15 | 209 | 0.0 | 3.2 | 0.00 | 0.18 | 0.00 | 89 | 1020.5 |
| 20260901140512 | 15 | 209 | 0.0 | 3.2 | 0.00 | 0.18 | 0.00 | 89 | 1020.5 |
| 20260901140030 | 15 | 209 | 0.0 | 3.2 | 0.00 | 0.18 | 0.00 | 89 | 1020.4 |
| 20260901135517 | 15 | 209 | 0.0 | 3.2 | 0.00 | 0.18 | 0.00 | 89 | 1020.5 |
| 20260901135005 | 15 | 209 | 0.0 | 3.2 | 0.00 | 0.18 | 0.00 | 88 | 1020.4 |
| 20260901134514 | 15 | 209 | 0.0 | 3.2 | 0.00 | 0.18 | 0.00 | 89 | 1020.4 |
| 20260901134009 | 15 | 210 | 0.0 | 3.2 | 0.00 | 0.18 | 0.00 | 88 | 1020.3 |
| 20260901133513 | 15 | 211 | 0.0 | 3.2 | 0.00 | 0.18 | 0.00 | 89 | 1020.3 |
| 20260901133023 | 14 | 210 | 0.0 | 3.2 | 0.00 | 0.18 | 0.00 | 89 | 1020.3 |
| 20260901132516 | 14 | 180 | 0.0 | 3.2 | 0.00 | 0.18 | 0.00 | 89 | 1020.1 |
| 20260901132019 | 14 | 184 | 0.0 | 3.2 | 0.00 | 0.18 | 0.00 | 89 | 1020.1 |
| 20260901131530 | 14 | 188 | 0.0 | 1.6 | 0.00 | 0.18 | 0.00 | 88 | 1020.0 |
| 20260901131006 | 14 | 188 | 0.0 | 1.6 | 0.00 | 0.18 | 0.00 | 88 | 1019.8 |
| 20260901130508 | 14 | 188 | 0.0 | 3.2 | 0.00 | 0.18 | 0.00 | 88 | 1019.7 |
| 20260901130017 | 14 | 188 | 0.0 | 3.2 | 0.00 | 0.18 | 0.00 | 88 | 1019.7 |
| 20260901125516 | 14 | 188 | 0.0 | 4.8 | 0.00 | 0.18 | 0.00 | 88 | 1019.8 |
| 20260901125014 | 14 | 189 | 0.0 | 4.8 | 0.00 | 0.18 | 0.00 | 89 | 1019.6 |
| 20260901124503 | 14 | 182 | 0.0 | 3.2 | 0.00 | 0.18 | 0.00 | 89 | 1019.5 |
| 20260901124004 | 14 | 182 | 0.0 | 3.2 | 0.00 | 0.18 | 0.00 | 89 | 1019.5 |
| 20260901123503 | 14 | 182 | 0.0 | 3.2 | 0.00 | 0.18 | 0.00 | 88 | 1019.4 |
| 20260901123010 | 14 | 182 | 0.0 | 3.2 | 0.00 | 0.18 | 0.00 | 89 | 1019.3 |
| 20260901122512 | 14 | 183 | 0.0 | 3.2 | 0.00 | 0.18 | 0.00 | 88 | 1019.2 |
| 20260901122011 | 14 | 183 | 0.0 | 3.2 | 0.00 | 0.18 | 0.00 | 88 | 1019.2 |
| 20260901121534 | 14 | 183 | 0.0 | 3.2 | 0.00 | 0.18 | 0.00 | 88 | 1019.2 |
| 20260901121018 | 14 | 183 | 0.0 | 3.2 | 0.00 | 0.18 | 0.00 | 87 | 1019.3 |
| 20260901120504 | 14 | 182 | 0.0 | 3.2 | 0.00 | 0.18 | 0.00 | 88 | 1019.3 |
| 20260901120004 | 14 | 146 | 0.0 | 3.2 | 0.00 | 0.18 | 0.00 | 88 | 1019.4 |
| 20260901115507 | 14 | 250 | 0.0 | 3.2 | 0.00 | 0.18 | 0.00 | 90 | 1019.4 |
| 20260901115008 | 14 | 190 | 0.0 | 3.2 | 0.00 | 0.18 | 0.00 | 90 | 1019.4 |
| 20260901114522 | 14 | 207 | 0.0 | 3.2 | 0.00 | 0.18 | 0.00 | 91 | 1019.3 |
| 20260901114011 | 14 | 197 | 0.0 | 3.2 | 0.00 | 0.18 | 0.00 | 90 | 1019.3 |
| 20260901113511 | 14 | 183 | 0.0 | 3.2 | 0.00 | 0.18 | 0.00 | 91 | 1019.3 |
| 20260901113028 | 14 | 183 | 0.0 | 3.2 | 0.00 | 0.18 | 0.00 | 91 | 1019.2 |
| 20260901112503 | 14 | 183 | 0.0 | 3.2 | 0.00 | 0.18 | 0.00 | 91 | 1019.2 |
| 20260901112003 | 14 | 183 | 0.0 | 1.6 | 0.00 | 0.18 | 0.00 | 90 | 1019.3 |
| 20260901111508 | 15 | 183 | 0.0 | 0.0 | 0.00 | 0.18 | 0.00 | 90 | 1019.3 |
| 20260901111006 | 15 | 183 | 0.0 | 0.0 | 0.00 | 0.18 | 0.00 | 90 | 1019.4 |
| 20260901110510 | 15 | 183 | 0.0 | 0.0 | 0.00 | 0.18 | 0.00 | 90 | 1019.4 |
| 20260901110023 | 15 | 183 | 0.0 | 0.0 | 0.00 | 0.18 | 0.00 | 91 | 1019.4 |
| 20260901105513 | 15 | 183 | 0.0 | 0.0 | 0.00 | 0.18 | 0.00 | 90 | 1019.4 |
| 20260901105019 | 15 | 183 | 0.0 | 3.2 | 0.00 | 0.18 | 0.00 | 90 | 1019.4 |
| 20260901104507 | 15 | 183 | 0.0 | 3.2 | 0.00 | 0.18 | 0.00 | 90 | 1019.6 |
| 20260901104006 | 15 | 183 | 0.0 | 3.2 | 0.00 | 0.18 | 0.00 | 90 | 1019.6 |
| 20260901103507 | 15 | 179 | 0.0 | 3.2 | 0.00 | 0.18 | 0.00 | 90 | 1019.6 |
| 20260901103017 | 15 | 179 | 0.0 | 3.2 | 0.00 | 0.18 | 0.00 | 90 | 1019.6 |
| 20260901102512 | 15 | 219 | 0.0 | 3.2 | 0.00 | 0.18 | 0.00 | 90 | 1019.6 |
| 20260901102013 | 15 | 219 | 0.0 | 3.2 | 0.00 | 0.18 | 0.00 | 90 | 1019.6 |
| 20260901101528 | 15 | 221 | 0.0 | 3.2 | 0.00 | 0.18 | 0.00 | 90 | 1019.6 |
| 20260901101016 | 15 | 229 | 0.0 | 3.2 | 0.00 | 0.18 | 0.00 | 89 | 1019.8 |
| 20260901100503 | 15 | 229 | 0.0 | 3.2 | 0.00 | 0.18 | 0.00 | 89 | 1020.0 |
| 20260901100011 | 15 | 229 | 0.0 | 3.2 | 0.00 | 0.18 | 0.00 | 89 | 1019.9 |
| 20260901095506 | 15 | 159 | 0.0 | 3.2 | 0.00 | 0.18 | 0.00 | 89 | 1019.8 |
| 20260901095008 | 15 | 159 | 0.0 | 0.0 | 0.00 | 0.18 | 0.00 | 89 | 1019.9 |
| 20260901094522 | 15 | 159 | 0.0 | 0.0 | 0.00 | 0.18 | 0.00 | 90 | 1019.9 |
| 20260901094012 | 15 | 159 | 0.0 | 1.6 | 0.00 | 0.18 | 0.00 | 89 | 1019.9 |
| 20260901093516 | 15 | 159 | 0.0 | 3.2 | 0.00 | 0.18 | 0.00 | 90 | 1020.2 |
| 20260901090036 | 15 | 159 | 0.0 | 3.2 | 0.00 | 0.18 | 0.00 | 90 | 1020.4 |
| 20260901085516 | 15 | 159 | 0.0 | 3.2 | 0.00 | 0.18 | 0.00 | 90 | 1020.5 |
| 20260901085016 | 15 | 161 | 0.0 | 3.2 | 0.00 | 0.18 | 0.00 | 90 | 1020.5 |
| 20260901084507 | 15 | 127 | 0.0 | 3.2 | 0.00 | 0.18 | 0.00 | 90 | 1020.5 |
| 20260901084005 | 15 | 127 | 0.0 | 3.2 | 0.00 | 0.18 | 0.00 | 90 | 1020.5 |
| 20260901083504 | 16 | 99 | 0.0 | 3.2 | 0.00 | 0.18 | 0.00 | 90 | 1020.5 |
| 20260901083017 | 16 | 90 | 0.0 | 3.2 | 0.00 | 0.18 | 0.00 | 90 | 1020.4 |
| 20260901082513 | 16 | 90 | 0.0 | 3.2 | 0.00 | 0.18 | 0.00 | 90 | 1020.5 |
| 20260901082017 | 16 | 90 | 0.0 | 3.2 | 0.00 | 0.18 | 0.00 | 89 | 1020.8 |
| 20260901081530 | 16 | 90 | 0.0 | 1.6 | 0.00 | 0.18 | 0.00 | 89 | 1020.9 |
| 20260901081016 | 16 | 90 | 0.0 | 3.2 | 0.00 | 0.18 | 0.00 | 90 | 1021.0 |
| 20260901080503 | 16 | 90 | 0.0 | 3.2 | 0.00 | 0.18 | 0.00 | 90 | 1021.0 |
| 20260901080014 | 16 | 90 | 0.0 | 0.0 | 0.00 | 0.18 | 0.00 | 90 | 1021.3 |
| 20260901075508 | 16 | 90 | 0.0 | 0.0 | 0.00 | 0.18 | 0.00 | 90 | 1021.2 |
| 20260901075013 | 16 | 90 | 0.0 | 3.2 | 0.00 | 0.18 | 0.00 | 90 | 1021.3 |
| 20260901074524 | 16 | 90 | 0.0 | 3.2 | 0.00 | 0.18 | 0.00 | 90 | 1021.4 |
| 20260901074015 | 16 | 90 | 0.0 | 3.2 | 0.00 | 0.18 | 0.00 | 90 | 1021.3 |
| 20260901073513 | 16 | 189 | 0.0 | 3.2 | 0.00 | 0.18 | 0.00 | 90 | 1021.4 |
| 20260901073031 | 16 | 189 | 0.0 | 3.2 | 0.00 | 0.18 | 0.00 | 90 | 1021.5 |
| 20260901072503 | 16 | 189 | 0.0 | 0.0 | 0.00 | 0.18 | 0.00 | 89 | 1021.5 |
| 20260901072004 | 16 | 189 | 0.0 | 3.2 | 0.00 | 0.18 | 0.00 | 90 | 1021.4 |
| 20260901071514 | 16 | 189 | 0.0 | 3.2 | 0.00 | 0.18 | 0.00 | 90 | 1021.5 |
| 20260901071012 | 16 | 201 | 0.0 | 3.2 | 0.00 | 0.18 | 0.00 | 90 | 1021.5 |
| 20260901070512 | 16 | 201 | 0.0 | 3.2 | 0.00 | 0.18 | 0.00 | 89 | 1021.5 |
| 20260901070044 | 16 | 218 | 0.0 | 3.2 | 0.00 | 0.18 | 0.00 | 89 | 1021.4 |
| 20260901065518 | 16 | 218 | 0.0 | 3.2 | 0.00 | 0.18 | 0.00 | 88 | 1021.2 |
| 20260901065021 | 16 | 218 | 0.0 | 3.2 | 0.00 | 0.18 | 0.00 | 88 | 1021.3 |
| 20260901064509 | 16 | 218 | 0.0 | 3.2 | 0.00 | 0.18 | 0.00 | 87 | 1021.3 |
| 20260901064008 | 16 | 218 | 0.0 | 3.2 | 0.00 | 0.18 | 0.00 | 86 | 1021.2 |
| 20260901063508 | 16 | 223 | 0.0 | 3.2 | 0.00 | 0.18 | 0.00 | 86 | 1021.3 |
| 20260901063019 | 16 | 223 | 0.0 | 3.2 | 0.00 | 0.18 | 0.00 | 84 | 1021.3 |
| 20260901062514 | 17 | 133 | 0.0 | 3.2 | 0.00 | 0.18 | 0.00 | 82 | 1021.3 |
| 20260901062012 | 17 | 51 | 0.0 | 4.8 | 0.00 | 0.18 | 0.00 | 81 | 1020.9 |
| 20260901061532 | 17 | 73 | 0.0 | 4.8 | 0.00 | 0.18 | 0.00 | 79 | 1021.3 |
| 20260901061017 | 17 | 208 | 1.6 | 4.8 | 0.00 | 0.18 | 0.00 | 78 | 1021.7 |
| 20260901060506 | 17 | 188 | 1.6 | 4.8 | 0.00 | 0.18 | 0.00 | 77 | 1021.2 |
| 20260901060016 | 17 | 281 | 0.0 | 4.8 | 0.00 | 0.18 | 0.00 | 78 | 1021.1 |
| 20260901055507 | 17 | 240 | 1.6 | 4.8 | 0.00 | 0.18 | 0.18 | 78 | 1021.0 |
| 20260901055013 | 17 | 248 | 0.0 | 4.8 | 0.00 | 0.18 | 0.18 | 79 | 1021.0 |
| 20260901054527 | 16 | 236 | 1.6 | 4.8 | 0.00 | 0.18 | 0.18 | 79 | 1021.0 |
| 20260901054017 | 16 | 247 | 0.0 | 3.2 | 0.00 | 0.18 | 0.18 | 81 | 1021.1 |
| 20260901053515 | 16 | 246 | 0.0 | 4.8 | 0.00 | 0.18 | 0.18 | 82 | 1021.1 |
| 20260901053032 | 16 | 278 | 0.0 | 4.8 | 0.00 | 0.18 | 0.18 | 85 | 1021.2 |
| 20260901052506 | 16 | 287 | 0.0 | 3.2 | 0.00 | 0.18 | 0.18 | 85 | 1021.3 |
| 20260901052010 | 16 | 325 | 0.0 | 3.2 | 0.00 | 0.18 | 0.18 | 87 | 1021.4 |
| 20260901051520 | 16 | 69 | 0.0 | 3.2 | 0.00 | 0.18 | 0.18 | 89 | 1021.5 |
| 20260901051011 | 16 | 223 | 0.0 | 3.2 | 0.00 | 0.18 | 0.18 | 89 | 1021.5 |
| 20260901050519 | 16 | 223 | 0.0 | 3.2 | 0.00 | 0.18 | 0.18 | 89 | 1021.6 |
| 20260901050030 | 16 | 223 | 0.0 | 3.2 | 0.00 | 0.18 | 0.18 | 89 | 1021.6 |
| 20260901045518 | 16 | 223 | 0.0 | 3.2 | 0.00 | 0.18 | 0.18 | 89 | 1021.6 |
| 20260901045015 | 16 | 219 | 0.0 | 3.2 | 0.00 | 0.18 | 0.18 | 89 | 1021.6 |
| 20260901044536 | 16 | 219 | 0.0 | 3.2 | 0.00 | 0.18 | 0.18 | 89 | 1021.6 |
| 20260901044008 | 16 | 198 | 0.0 | 3.2 | 0.00 | 0.18 | 0.18 | 89 | 1021.5 |
| 20260901043509 | 16 | 229 | 0.0 | 3.2 | 0.00 | 0.18 | 0.18 | 89 | 1021.6 |
| 20260901043019 | 16 | 228 | 0.0 | 3.2 | 0.00 | 0.18 | 0.18 | 89 | 1021.6 |
| 20260901042517 | 16 | 198 | 0.0 | 4.8 | 0.00 | 0.18 | 0.18 | 89 | 1021.5 |
| 20260901042013 | 16 | 195 | 0.0 | 4.8 | 0.00 | 0.18 | 0.18 | 89 | 1021.3 |
| 20260901041532 | 16 | 194 | 1.6 | 4.8 | 0.00 | 0.18 | 0.18 | 88 | 1021.4 |
| 20260901041018 | 16 | 119 | 0.0 | 3.2 | 0.00 | 0.18 | 0.18 | 88 | 1021.5 |
| 20260901040519 | 16 | 119 | 0.0 | 3.2 | 0.00 | 0.18 | 0.18 | 88 | 1021.5 |
| 20260901040016 | 17 | 85 | 0.0 | 3.2 | 0.00 | 0.18 | 0.18 | 88 | 1021.3 |
| 20260901035514 | 17 | 50 | 0.0 | 3.2 | 0.00 | 0.18 | 0.18 | 88 | 1021.2 |
| 20260901035014 | 16 | 36 | 1.6 | 3.2 | 0.00 | 0.18 | 0.18 | 86 | 1021.3 |
| 20260901034528 | 16 | 349 | 1.6 | 3.2 | 0.03 | 0.18 | 0.18 | 88 | 1021.6 |
| 20260901034014 | 16 | 352 | 0.0 | 3.2 | 0.03 | 0.18 | 0.18 | 87 | 1022.0 |
| 20260901033518 | 17 | 310 | 0.0 | 3.2 | 0.03 | 0.18 | 0.18 | 86 | 1022.3 |
| 20260901033039 | 17 | 317 | 0.0 | 4.8 | 0.13 | 0.18 | 0.18 | 85 | 1022.4 |
| 20260901032519 | 17 | 336 | 1.6 | 4.8 | 0.18 | 0.18 | 0.18 | 85 | 1022.1 |
| 20260901032012 | 17 | 22 | 1.6 | 3.2 | 0.18 | 0.18 | 0.18 | 86 | 1022.5 |
| 20260901031523 | 17 | 198 | 0.0 | 3.2 | 0.18 | 0.18 | 0.18 | 85 | 1022.7 |
| 20260901031013 | 17 | 203 | 0.0 | 3.2 | 0.18 | 0.18 | 0.18 | 86 | 1022.7 |
| 20260901030517 | 17 | 205 | 0.0 | 3.2 | 0.18 | 0.18 | 0.18 | 85 | 1022.7 |
| 20260901030027 | 17 | 123 | 0.0 | 3.2 | 0.18 | 0.18 | 0.18 | 85 | 1022.7 |
| 20260901025518 | 17 | 180 | 0.0 | 3.2 | 0.18 | 0.18 | 0.18 | 83 | 1022.6 |
| 20260901025015 | 17 | 221 | 0.0 | 3.2 | 0.18 | 0.18 | 0.18 | 81 | 1022.5 |
| 20260901024534 | 18 | 221 | 0.0 | 3.2 | 0.15 | 0.15 | 0.15 | 79 | 1022.5 |
| 20260901024008 | 18 | 161 | 0.0 | 16.1 | 0.15 | 0.15 | 0.15 | 66 | 1022.5 |
| 20260901023510 | 20 | 174 | 3.2 | 19.3 | 0.15 | 0.15 | 0.15 | 66 | 1022.3 |
| 20260901023026 | 21 | 205 | 9.7 | 19.3 | 0.05 | 0.05 | 0.05 | 59 | 1021.8 |
| 20260901022515 | 22 | 157 | 6.4 | 14.5 | 0.00 | 0.00 | 0.00 | 51 | 1021.2 |
| 20260901022018 | 21 | 199 | 1.6 | 9.7 | 0.00 | 0.00 | 0.00 | 50 | 1020.5 |
| 20260901021545 | 21 | 246 | 3.2 | 9.7 | 0.00 | 0.00 | 0.00 | 51 | 1020.3 |
| 20260901021015 | 21 | 321 | 1.6 | 9.7 | 0.00 | 0.00 | 0.00 | 51 | 1020.2 |
| 20260901020508 | 21 | 250 | 1.6 | 6.4 | 0.00 | 0.00 | 0.00 | 51 | 1020.2 |
| 20260901020018 | 21 | 227 | 1.6 | 6.4 | 0.00 | 0.00 | 0.00 | 52 | 1020.1 |
| 20260901015513 | 21 | 234 | 1.6 | 6.4 | 0.00 | 0.00 | 0.00 | 52 | 1020.2 |
| 20260901015016 | 21 | 233 | 1.6 | 9.7 | 0.00 | 0.00 | 0.00 | 53 | 1020.1 |
| 20260901014529 | 21 | 277 | 1.6 | 9.7 | 0.00 | 0.00 | 0.00 | 53 | 1020.1 |
| 20260901014019 | 21 | 290 | 1.6 | 12.9 | 0.00 | 0.00 | 0.00 | 54 | 1020.1 |
| 20260901013518 | 21 | 252 | 1.6 | 12.9 | 0.00 | 0.00 | 0.00 | 54 | 1020.1 |
| 20260901013036 | 21 | 286 | 3.2 | 11.3 | 0.00 | 0.00 | 0.00 | 53 | 1020.1 |
| 20260901012507 | 21 | 298 | 1.6 | 11.3 | 0.00 | 0.00 | 0.00 | 53 | 1020.1 |
| 20260901012009 | 21 | 220 | 3.2 | 11.3 | 0.00 | 0.00 | 0.00 | 53 | 1020.2 |
| 20260901011524 | 21 | 315 | 3.2 | 11.3 | 0.00 | 0.00 | 0.00 | 54 | 1020.2 |
| 20260901011013 | 21 | 311 | 1.6 | 14.5 | 0.00 | 0.00 | 0.00 | 55 | 1020.2 |
| 20260901010514 | 21 | 213 | 4.8 | 14.5 | 0.00 | 0.00 | 0.00 | 55 | 1020.1 |
| 20260901010043 | 21 | 36 | 4.8 | 14.5 | 0.00 | 0.00 | 0.00 | 55 | 1020.1 |
| 20260901005515 | 21 | 278 | 3.2 | 14.5 | 0.00 | 0.00 | 0.00 | 55 | 1020.1 |
| 20260901005015 | 22 | 349 | 4.8 | 14.5 | 0.00 | 0.00 | 0.00 | 54 | 1020.2 |
| 20260901004520 | 22 | 262 | 4.8 | 19.3 | 0.00 | 0.00 | 0.00 | 53 | 1020.2 |
| 20260901004011 | 22 | 272 | 4.8 | 19.3 | 0.00 | 0.00 | 0.00 | 53 | 1020.4 |
| 20260901003512 | 22 | 242 | 4.8 | 24.1 | 0.00 | 0.00 | 0.00 | 52 | 1020.3 |
| 20260901003030 | 23 | 221 | 9.7 | 24.1 | 0.00 | 0.00 | 0.00 | 48 | 1020.1 |
| 20260901002516 | 24 | 282 | 4.8 | 22.5 | 0.00 | 0.00 | 0.00 | 42 | 1019.6 |
| 20260901002017 | 25 | 188 | 6.4 | 20.9 | 0.00 | 0.00 | 0.00 | 39 | 1019.6 |
| 20260901001536 | 26 | 288 | 3.2 | 14.5 | 0.00 | 0.00 | 0.00 | 36 | 1019.5 |
| 20260901001018 | 26 | 281 | 3.2 | 14.5 | 0.00 | 0.00 | 0.00 | 33 | 1019.4 |
| 20260901000509 | 26 | 260 | 3.2 | 9.7 | 0.00 | 0.00 | 0.00 | 33 | 1019.3 |
| 20260901000022 | 27 | 288 | 1.6 | 8.0 | 0.00 | 0.00 | 0.00 | 32 | 1019.2 |
| 20260831235517 | 27 | 277 | 3.2 | 6.4 | 0.00 | 0.00 | 0.00 | 32 | 1019.1 |
| 20260831235017 | 27 | 263 | 1.6 | 6.4 | 0.00 | 0.00 | 0.00 | 32 | 1019.2 |
| 20260831234533 | 27 | 262 | 1.6 | 8.0 | 0.00 | 0.00 | 0.00 | 31 | 1019.2 |
| 20260831234020 | 28 | 188 | 1.6 | 12.9 | 0.00 | 0.00 | 0.00 | 31 | 1019.2 |
| 20260831233516 | 28 | 267 | 6.4 | 12.9 | 0.00 | 0.00 | 0.00 | 30 | 1019.0 |
| 20260831233037 | 28 | 338 | 0.0 | 6.4 | 0.00 | 0.00 | 0.00 | 29 | 1019.0 |
| 20260831232515 | 28 | 330 | 0.0 | 4.8 | 0.00 | 0.00 | 0.00 | 29 | 1018.9 |
| 20260831232012 | 28 | 244 | 0.0 | 3.2 | 0.00 | 0.00 | 0.00 | 29 | 1019.0 |
| 20260831231527 | 28 | 193 | 0.0 | 3.2 | 0.00 | 0.00 | 0.00 | 29 | 1019.0 |
| 20260831231017 | 28 | 192 | 0.0 | 3.2 | 0.00 | 0.00 | 0.00 | 28 | 1019.1 |
| 20260831230515 | 29 | 213 | 0.0 | 3.2 | 0.00 | 0.00 | 0.00 | 28 | 1019.1 |
| 20260831230037 | 29 | 59 | 0.0 | 4.8 | 0.00 | 0.00 | 0.00 | 30 | 1019.2 |
| 20260831225518 | 30 | 194 | 1.6 | 6.4 | 0.00 | 0.00 | 0.00 | 28 | 1019.2 |
| 20260831225016 | 30 | 38 | 0.0 | 6.4 | 0.00 | 0.00 | 0.00 | 28 | 1019.3 |
| 20260831224519 | 29 | 229 | 1.6 | 6.4 | 0.00 | 0.00 | 0.00 | 27 | 1019.3 |
| 20260831224014 | 29 | 360 | 1.6 | 8.0 | 0.00 | 0.00 | 0.00 | 28 | 1019.2 |
| 20260831223514 | 29 | 36 | 4.8 | 8.0 | 0.00 | 0.00 | 0.00 | 28 | 1019.2 |
| 20260831223037 | 29 | 133 | 3.2 | 8.0 | 0.00 | 0.00 | 0.00 | 29 | 1019.2 |
| 20260831222519 | 28 | 42 | 0.0 | 4.8 | 0.00 | 0.00 | 0.00 | 29 | 1019.2 |
| 20260831222016 | 28 | 40 | 1.6 | 4.8 | 0.00 | 0.00 | 0.00 | 31 | 1019.4 |
| 20260831221536 | 28 | 37 | 0.0 | 4.8 | 0.00 | 0.00 | 0.00 | 31 | 1019.4 |
| 20260831221023 | 28 | 17 | 1.6 | 3.2 | 0.00 | 0.00 | 0.00 | 29 | 1019.5 |
| 20260831220513 | 28 | 52 | 0.0 | 3.2 | 0.00 | 0.00 | 0.00 | 30 | 1019.5 |
| 20260831220028 | 28 | 44 | 1.6 | 4.8 | 0.00 | 0.00 | 0.00 | 31 | 1019.5 |
| 20260831215519 | 28 | 35 | 1.6 | 4.8 | 0.00 | 0.00 | 0.00 | 31 | 1019.5 |
| 20260831215024 | 28 | 72 | 1.6 | 8.0 | 0.00 | 0.00 | 0.00 | 30 | 1019.5 |
| 20260831214504 | 28 | 75 | 3.2 | 8.0 | 0.00 | 0.00 | 0.00 | 31 | 1019.6 |
| 20260831214003 | 28 | 53 | 3.2 | 4.8 | 0.00 | 0.00 | 0.00 | 31 | 1019.6 |
| 20260831213508 | 28 | 38 | 1.6 | 4.8 | 0.00 | 0.00 | 0.00 | 31 | 1019.6 |
| 20260831213030 | 28 | 119 | 1.6 | 4.8 | 0.00 | 0.00 | 0.00 | 30 | 1019.8 |
| 20260831212513 | 28 | 53 | 0.0 | 9.7 | 0.00 | 0.00 | 0.00 | 30 | 1019.9 |
| 20260831212016 | 28 | 59 | 1.6 | 9.7 | 0.00 | 0.00 | 0.00 | 31 | 1020.0 |
| 20260831211531 | 28 | 55 | 4.8 | 8.0 | 0.00 | 0.00 | 0.00 | 31 | 1020.1 |
| 20260831211004 | 28 | 40 | 4.8 | 6.4 | 0.00 | 0.00 | 0.00 | 30 | 1020.2 |
| 20260831210504 | 28 | 35 | 3.2 | 6.4 | 0.00 | 0.00 | 0.00 | 30 | 1020.2 |
| 20260831210015 | 28 | 76 | 1.6 | 6.4 | 0.00 | 0.00 | 0.00 | 31 | 1020.3 |
| 20260831205508 | 28 | 92 | 1.6 | 4.8 | 0.00 | 0.00 | 0.00 | 31 | 1020.3 |
| 20260831205010 | 28 | 19 | 1.6 | 6.4 | 0.00 | 0.00 | 0.00 | 31 | 1020.4 |
| 20260831204525 | 28 | 138 | 1.6 | 11.3 | 0.00 | 0.00 | 0.00 | 31 | 1020.5 |
| 20260831204016 | 28 | 144 | 1.6 | 11.3 | 0.00 | 0.00 | 0.00 | 31 | 1020.5 |
| 20260831203515 | 28 | 142 | 1.6 | 8.0 | 0.00 | 0.00 | 0.00 | 32 | 1020.5 |
| 20260831203010 | 28 | 82 | 0.0 | 8.0 | 0.00 | 0.00 | 0.00 | 32 | 1020.6 |
| 20260831202507 | 28 | 130 | 1.6 | 9.7 | 0.00 | 0.03 | 0.00 | 32 | 1020.6 |
| 20260831202007 | 28 | 125 | 0.0 | 9.7 | 0.00 | 0.03 | 0.00 | 31 | 1020.7 |
| 20260831201522 | 28 | 36 | 4.8 | 9.7 | 0.00 | 0.15 | 0.00 | 32 | 1020.8 |
| 20260831201012 | 28 | 79 | 3.2 | 6.4 | 0.00 | 0.15 | 0.00 | 32 | 1020.8 |
| 20260831200514 | 28 | 86 | 3.2 | 8.0 | 0.00 | 0.15 | 0.00 | 30 | 1020.9 |
| 20260831200030 | 28 | 130 | 3.2 | 8.0 | 0.00 | 0.15 | 0.00 | 30 | 1020.9 |
| 20260831195515 | 28 | 73 | 1.6 | 6.4 | 0.00 | 0.15 | 0.00 | 33 | 1020.9 |
| 20260831195004 | 27 | 24 | 0.0 | 6.4 | 0.00 | 0.15 | 0.00 | 37 | 1021.0 |
| 20260831194508 | 27 | 39 | 1.6 | 6.4 | 0.00 | 0.15 | 0.00 | 36 | 1021.0 |
| 20260831194008 | 27 | 331 | 0.0 | 6.4 | 0.00 | 0.15 | 0.00 | 38 | 1021.0 |
| 20260831193510 | 27 | 338 | 1.6 | 6.4 | 0.00 | 0.15 | 0.00 | 37 | 1021.2 |
| 20260831193024 | 27 | 5 | 0.0 | 6.4 | 0.00 | 0.15 | 0.00 | 39 | 1021.2 |
| 20260831192515 | 26 | 24 | 1.6 | 6.4 | 0.00 | 0.15 | 0.00 | 40 | 1021.3 |
| 20260831192021 | 26 | 32 | 1.6 | 6.4 | 0.00 | 0.18 | 0.00 | 39 | 1021.4 |
| 20260831191530 | 26 | 9 | 3.2 | 6.4 | 0.00 | 0.18 | 0.00 | 39 | 1021.5 |
| 20260831191003 | 26 | 57 | 3.2 | 4.8 | 0.00 | 0.18 | 0.00 | 39 | 1021.7 |